User: anonymous   Login
Location: Hartman Creek State Park
(44.3257°N, 89.2134°W)
Time: 11:08:56
(UTC-06:00)
Language:

BREEZE-M DEB (TANK) - Orbit

View from above orbital plane
View from above orbital plane
View from above satellite
View from above satellite

Ground track
Ground track

The orbit data is extracted from the following two-line orbital elements,

1 29649U 06056B   16040.72699007 +.00001747 +00000-0 +31911-3 0  9995
2 29649 049.4664 234.5025 5388910 213.5560 096.3059 04.97788601163161
Epoch (UTC): 09 February 2016 17:26:51
Eccentricity: 0.5388910
inclination: 49.4664°
perigee height: 303 km
apogee height: 15919 km
right ascension of ascending node: 234.5025°
argument of perigee: 213.5560°
revolutions per day: 4.97788601
mean anomaly at epoch: 96.3059°
orbit number at epoch: 16316

The dashed part of the orbit path shows where the satellite is in the earth's shadow,  

DLR